Flag for Cambodia Weather past 2 weeks in Phnom Penh, Cambodia

Now
79 °F

Clear.


Feels Like: 82 °F
Forecast: 77 / 94 °F
Wind: 7 mph from Southeast

Location: Phnom-Penh / Pochentong

Current Time: Mar 4, 2015 at 8:07:25 AM

Latest Report: Mar 4, 2015 at 7:30 AM


Visibility: 6 mi

Pressure: 29.83 "Hg

Humidity: 84%

Dew point: 73 °F

Location of Phnom PenhLocation

Historic Weather in Phnom Penh — Graph

°F

Phnom Penh temperature yesterday

Maximum temperature yesterday: 97 °F (at 2:30 PM)
Minimum temperature yesterday: 77 °F (at 6:00 AM)
Average temperature yesterday: 87 °F

Past Weeks' High & Low Weather Summary

 TemperatureHumidityPressure
High97 °F (Mar 3, 2:30 PM)94% (Feb 25, 6:00 AM)29.95 "Hg (Feb 25, 6:00 AM)
Low73 °F (Feb 17, 7:30 AM)37% (Mar 3, 2:30 PM)29.68 "Hg (Mar 3, 3:00 PM)
Average85 °F64%29.83 "Hg
* Reported Feb 17 7:30 AM — Mar 4 7:00 AM, Phnom Penh, Weather by CustomWeather, © 2015

Note: Actual official high and low records may vary slightly from our data, if they occured in-between our weather recording intervals... More about our weather records

Advertising

Phnom Penh weather history for previous 24 hours

 ConditionsComfort  
Time TempWeatherWind HumidityBarometerVisibility
7:00 AM
Wed, Mar 4
77 °FClear.5 mph89%29.83 "Hg6 mi
6:30 AM77 °FClear.5 mph89%29.80 "Hg6 mi
6:00 AM77 °FClear.6 mph89%29.77 "Hg6 mi
1:00 AM81 °FClear.7 mph79%29.77 "Hg6 mi
12:30 AM81 °FClear.8 mph79%29.77 "Hg6 mi
12:00 AM81 °FClear.7 mph79%29.77 "Hg6 mi
11:30 PM
Tue, Mar 3
81 °FClear.7 mph79%29.77 "Hg6 mi
11:00 PM81 °FClear.7 mph79%29.77 "Hg6 mi
10:30 PM81 °FClear.8 mph79%29.77 "Hg6 mi
10:00 PM82 °FClear.7 mph74%29.77 "Hg6 mi
9:30 PM82 °FClear.9 mph74%29.77 "Hg6 mi
9:00 PM82 °FClear.9 mph74%29.77 "Hg6 mi
8:30 PM84 °FClear.9 mph70%29.74 "Hg6 mi
8:00 PM84 °FClear.10 mph70%29.74 "Hg6 mi
7:30 PM86 °FClear.10 mph66%29.74 "Hg6 mi
7:00 PM88 °FClear.12 mph62%29.71 "Hg6 mi
6:30 PM90 °FClear.10 mph55%29.71 "Hg6 mi
6:00 PM90 °FScattered clouds.10 mph52%29.68 "HgN/A
5:30 PM91 °FScattered clouds.9 mph49%29.68 "HgN/A
5:00 PM93 °FScattered clouds.8 mph47%29.68 "HgN/A
4:30 PM95 °FScattered clouds.5 mph41%29.68 "HgN/A
4:00 PM97 °FPassing clouds.2 mph37%29.68 "HgN/A
3:30 PM95 °FPassing clouds.3 mph39%29.68 "HgN/A
3:00 PM95 °FPassing clouds.2 mph39%29.68 "HgN/A
2:30 PM97 °FPassing clouds.5 mph37%29.71 "HgN/A
2:00 PM93 °FPassing clouds.5 mph41%29.74 "HgN/A
1:30 PM95 °FPassing clouds.1 mph39%29.77 "HgN/A
1:00 PM93 °FPassing clouds.7 mph41%29.77 "HgN/A
12:30 PM93 °FPassing clouds.7 mph41%29.80 "HgN/A
12:00 PM91 °FPassing clouds.6 mph44%29.83 "HgN/A
11:30 AM90 °FPassing clouds.8 mph46%29.86 "HgN/A
10:30 AM88 °FPassing clouds.8 mph49%29.89 "HgN/A
10:00 AM86 °FPassing clouds.9 mph52%29.92 "HgN/A
9:30 AM86 °FSunny.12 mph55%29.89 "Hg10 mi
9:00 AM84 °FPassing clouds.10 mph58%29.89 "HgN/A
8:30 AM82 °FSunny.12 mph62%29.89 "Hg10 mi
8:00 AM81 °FClear.9 mph66%29.89 "Hg6 mi
Weather by CustomWeather, © 2015

See weather overviewHow to use our weather pages